Location: Recife
(8.0585°S, 34.8848°W)
Time: 21:18:25
(UTC-03:00)

A-11 Canister half - Pass Details

Date: 20 April 2026
Orbit: 1523 x 1684 km, 47.3° (Epoch: 16 May)

Event Time Altitude Azimuth Distance (km) Brightness Sun altitude
Rises 19:14:42 0° 220° (SW) 4,712 11.9 -30.0°
Reaches altitude 10° 19:17:43 10° 220° (SW) 3,743 11.3 -30.7°
Maximum altitude 19:27:16 88° 130° (SE) 1,595 8.9 -33.1°
Enters shadow 19:29:26 61° 43° (NE) 1,783 9.0 -33.6°
Drops below altitude 10° 19:37:07 10° 40° (NE) 3,856 - -35.5°
Sets 19:40:16 0° 40° (NE) 4,860 - -36.2°
